Weather in Krynychky

Ukraine / Dnipropetrovsk Region     48°22′24″N   34°27′23″E
temp.,
°C
wind,
m/s
gust,
m/s
humid.,
%
clouds,
%
prec.,
mm/h
press.,
hPa
HPBL,
m
10 august, wed
wed1000:00+22n7146671 0.0 1016386
03:00+20n61179100 0.0 1015267
06:00+19n61084100 0.0 1015239
09:00+25nne6756100 0.0 1015469
12:00+31ne4529100 0.0 10141192
15:00+33ne4620100 0.0 10123312
18:00+31nne6825100 0.0 1012680
21:00+26n91451100 0.0 1013793
11 august, thu
thu1100:00+22n7147486 0.0 1012395
03:00+22n7126843 0.0 1010281
06:00+21nne596799 0.0 1011188
09:00+28ene51029100 0.0 1011611
12:00+27n344147 0.4 1012209
15:00+33nne7926100 0.9 10102663
18:00+29sse5934100 0.1 1010866
21:00+26ne363697 0.1 1012187
12 august, fri
fri1200:00+25ne51043100 0.0 1013251
03:00+26ne71441100 0.0 1012873
06:00+21ene61469100 0.5 1012463
09:00+21ene51180100 4.4 1014482
12:00+24ne61164100 0.2 1013586
15:00+24ne61062100 3.3 1013452
18:00+22wnw3376100 4.9 1013121
21:00+21nnw227678 6.4 101218
13 august, sat
sat1300:00+21ne337278 0.1 101243
03:00+19ne5117252 0.4 1012189
06:00+19ene4117245 0.1 1011213
09:00+25e711484 0.1 1011566
12:00+31ese68390 0.1 10111178
15:00+35ese79230 0.1 10092517
18:00+33se58280 0.0 10091870
21:00+28e332951 0.0 100921
14 august, sun
sun1400:00+25e34333 0.0 100942
03:00+24ene412340 0.0 1008225
06:00+24ene5143997 0.0 1008383
09:00+30e81330100 0.0 1008912
12:00+34ese9111899 0.0 10072223
15:00+36se7917100 0.0 10063170
18:00+33sse4723100 0.0 1006575
21:00+30nne2327100 0.1 100520